Wind_Speed
13 13 12 11 11 10 9 9 10 10 10 9 9 9 8 8 7 6 6 6 5 5 4 3 2 3 3 3 3 3 3 4 4 4 4 4 5 6 5 6 7 7 6
11 11 11 11 10 9 9 8 8 9 9 9 9 8 8 7 7 6 6 6 5 4 4 3 2 1 2 2 2 3 3 3 4 4 4 4 4 5 5 5 5 6 6
9 9 9 9 9 8 8 8 7 7 7 7 7 7 7 7 6 5 5 5 4 4 4 3 3 2 1 1 2 2 3 3 3 4 4 4 5 5 5 5 6 6 7
8 8 8 8 8 7 7 7 7 7 7 7 7 7 6 5 5 4 4 3 3 3 3 3 3 2 1 1 1 2 3 3 3 4 3 3 4 4 5 5 6 7 8
8 7 6 6 6 6 6 6 6 6 6 5 6 6 6 5 4 4 3 2 2 2 2 3 2 2 1 1 2 2 2 3 3 3 3 4 5 5 5 5 7 8 8
7 6 5 4 4 4 4 4 4 4 3 3 4 4 4 4 4 3 3 2 2 2 2 2 2 2 2 2 2 3 2 3 3 4 4 4 6 6 7 6 7 8 9
7 6 6 5 4 3 2 2 2 2 2 2 2 3 3 3 3 3 3 3 3 3 3 3 3 3 3 4 4 3 3 4 4 4 5 5 6 7 7 7 7 9 10
8 7 6 6 6 4 3 2 1 1 1 1 1 2 2 2 2 2 3 3 3 4 5 5 4 5 5 5 5 5 5 5 5 5 6 6 7 7 8 8 9 9 10
8 8 7 7 7 6 5 4 3 2 2 3 3 3 4 4 4 4 4 4 4 5 6 6 6 6 6 6 7 7 7 7 7 7 7 8 9 9 10 10 10 11 10
9 9 8 9 9 9 9 8 7 5 5 5 5 5 6 6 6 6 6 6 6 6 7 7 8 8 8 8 9 9 9 10 9 9 9 10 10 11 12 13 13 13 13
11 11 10 10 9 9 9 9 8 6 6 7 8 8 8 8 8 8 8 8 8 8 9 9 10 10 10 10 10 11 11 11 11 11 11 12 13 13 14 15 15 16 16
14 12 11 11 11 10 10 9 10 9 9 9 10 10 10 10 10 10 9 9 10 10 11 11 11 11 12 12 12 12 13 13 13 13 13 14 15 15 16 16 17 17 18
15 14 12 11 11 12 12 12 12 12 12 12 12 12 12 12 12 12 11 11 12 12 13 13 12 12 13 13 14 14 15 15 15 15 16 17 17 17 18 18 18 19 19
18 17 14 13 13 13 13 14 14 14 14 14 14 14 14 15 15 14 14 13 14 14 15 14 14 14 14 15 16 16 17 17 17 17 17 18 19 19 20 20 21 21 21
19 18 16 16 16 16 17 17 17 16 16 16 16 16 16 16 15 15 16 16 16 16 17 17 17 17 17 17 18 18 19 19 19 19 19 20 20 21 22 22 22 23 23
21 20 19 18 18 18 19 18 19 18 18 18 18 18 18 17 17 18 19 18 18 18 19 19 19 20 20 20 20 20 20 21 21 21 22 22 23 23 23 24 24 24 24
22 22 20 20 19 19 20 19 20 21 21 21 20 19 20 20 20 20 19 19 20 20 21 22 22 23 23 22 21 22 22 23 23 23 23 24 25 25 26 25 25 25 26
23 22 21 22 22 22 21 22 22 23 23 22 22 22 21 22 22 21 21 21 22 23 24 24 24 25 24 24 24 24 25 26 26 25 25 25 26 27 27 27 27 27 27
26 25 24 24 24 24 24 24 24 24 24 24 24 24 23 23 23 24 24 23 24 25 25 26 25 25 25 26 26 27 27 27 27 26 26 27 27 28 28 28 28 28 29
27 27 27 26 26 26 26 25 25 25 26 26 26 25 25 25 26 26 26 26 26 27 27 27 27 27 27 28 29 29 29 29 29 29 28 29 29 29 29 30 30 29 30
27 27 28 28 28 28 28 27 27 27 28 28 26 26 26 27 27 27 28 28 28 28 28 28 29 30 30 30 31 31 32 31 30 31 31 32 32 32 32 31 31 31 31
28 28 28 28 29 29 29 28 28 28 28 28 28 28 28 28 29 29 30 30 30 29 29 30 31 32 32 33 34 34 33 33 32 33 33 33 33 33 33 33 32 32 33
28 28 28 29 29 29 29 28 28 30 30 29 28 28 29 29 30 30 30 31 31 32 32 32 33 33 34 35 36 35 34 34 33 33 33 34 34 34 34 34 34 34 34
27 27 28 29 29 30 30 30 29 29 29 28 28 28 29 29 30 31 31 32 33 33 34 34 35 35 35 35 36 37 35 35 35 35 35 34 34 34 35 36 36 35 35
26 27 27 28 28 29 28 28 28 28 27 27 27 26 28 29 30 31 32 33 32 33 34 35 36 36 36 36 36 37 35 35 36 36 35 35 34 34 35 35 35 35 35
25 26 26 27 27 29 29 28 27 27 27 27 28 28 28 29 30 31 32 33 33 33 34 35 36 36 36 36 37 36 36 36 37 36 36 34 34 35 35 35 35 36 36
Wind_Direction
28 33 37 38 45 52 58 61 62 61 62 63 67 71 76 82 89 95 96 96 96 92 97 104 116 132 144 168 180 192 209 224 232 231 238 244 246 237 238 238 239 245 247
22 24 30 35 39 46 50 54 56 57 58 60 63 65 68 76 83 86 90 94 91 89 91 90 94 130 154 179 198 213 222 233 246 255 261 256 251 253 259 258 256 252 248
19 20 23 28 31 37 41 44 48 52 53 55 61 63 63 69 78 79 84 88 84 80 74 70 72 92 117 208 236 240 249 266 269 270 275 268 266 268 267 263 263 260 258
5 11 10 19 26 28 33 42 50 52 54 57 59 61 64 62 65 69 68 71 69 67 69 58 52 55 66 18 309 292 290 289 287 287 279 277 282 282 277 275 265 265 267
354 359 357 10 21 26 33 40 46 48 52 56 59 62 61 67 65 55 59 58 45 45 41 34 32 33 26 350 322 318 315 310 304 303 294 285 279 280 279 276 270 273 275
344 345 341 358 21 30 32 30 28 38 50 50 48 53 58 64 57 44 42 34 19 11 4 5 353 333 318 310 315 314 310 305 302 304 302 300 295 288 282 273 269 275 281
331 330 330 340 358 8 8 7 12 21 36 44 40 38 42 44 40 34 28 17 6 359 352 336 321 317 312 308 304 303 299 298 299 298 296 295 294 293 290 284 282 281 282
319 317 311 318 315 315 308 309 336 357 1 353 340 332 336 346 345 344 353 357 351 343 338 330 315 305 304 298 291 294 295 299 296 297 298 299 299 298 296 290 291 286 283
305 306 308 308 302 296 288 274 271 269 274 280 290 299 305 309 308 307 314 314 318 323 325 329 318 307 299 298 288 291 290 293 293 293 292 296 298 295 294 291 290 287 279
289 289 294 298 300 299 295 290 285 276 278 278 280 286 295 297 294 293 294 296 300 304 307 308 305 300 295 293 287 284 286 287 287 289 286 285 288 290 289 288 287 286 283
277 279 283 290 298 296 294 291 286 285 278 276 278 280 285 288 286 287 288 287 289 295 298 300 297 294 293 288 285 287 288 287 286 287 286 287 288 288 287 286 286 285 284
278 277 279 285 285 287 289 291 291 284 282 279 283 281 282 280 278 279 283 283 284 288 292 294 293 290 287 286 286 285 284 285 286 285 286 286 287 288 287 286 285 284 284
280 283 281 279 280 285 287 286 290 285 283 282 283 279 275 273 272 273 277 279 280 281 285 289 289 288 287 287 285 286 285 284 285 285 284 284 285 286 287 287 286 284 283
277 278 281 282 280 281 283 283 285 281 280 281 279 279 274 275 273 272 274 277 280 281 280 281 283 284 285 286 286 285 284 284 285 286 285 283 283 283 283 284 283 282 281
274 272 271 275 280 280 280 280 279 277 277 277 277 279 280 281 278 277 277 279 281 282 280 280 282 281 281 282 282 282 282 284 284 285 286 285 285 283 282 281 281 281 281
272 271 274 277 274 274 276 276 277 276 275 276 277 279 280 282 282 281 281 279 279 280 279 280 281 280 279 278 279 281 281 281 281 284 286 286 286 285 284 282 281 281 282
272 270 271 273 275 277 277 274 273 277 276 275 276 277 278 281 281 280 281 280 280 279 279 279 279 279 278 278 280 281 279 280 280 282 283 283 283 285 286 287 284 284 283
271 271 270 271 272 272 273 271 271 275 275 274 273 274 275 277 279 278 278 279 280 278 277 278 279 277 277 278 278 279 280 280 280 280 280 281 281 283 284 286 286 285 284
272 270 269 268 268 268 269 270 271 273 273 274 274 275 274 275 275 277 278 277 277 278 278 277 277 277 277 277 278 278 278 279 280 281 281 283 284 282 283 284 284 284 284
271 271 270 268 268 269 270 273 274 274 275 273 272 271 271 272 273 275 276 277 277 276 277 276 276 277 277 276 277 278 276 277 279 280 282 283 284 284 283 284 284 284 284
269 271 271 270 269 270 272 272 275 276 276 273 274 273 272 273 275 277 277 277 276 276 276 276 276 276 276 276 276 277 277 276 277 278 280 280 282 283 282 283 284 284 283
267 268 270 271 270 272 274 274 274 274 275 274 273 274 274 275 276 278 278 277 276 276 276 276 276 277 277 277 277 276 275 274 274 276 277 277 280 280 280 282 283 284 284
267 267 268 271 272 273 273 273 274 275 275 275 273 275 277 277 277 277 277 277 277 277 276 276 276 276 278 278 277 275 274 273 275 276 277 277 278 277 279 281 282 282 282
267 268 269 269 270 272 274 275 276 277 277 277 276 275 277 277 277 276 277 278 278 278 277 276 276 277 278 278 279 278 274 273 275 276 277 277 276 277 279 280 280 280 281
268 270 270 269 270 271 274 278 279 279 277 276 277 276 275 276 276 277 278 280 282 280 279 280 279 278 278 279 278 279 277 277 277 276 276 277 278 279 279 280 280 280 281
269 270 271 271 273 273 276 278 277 277 275 274 275 276 277 278 278 279 280 281 282 283 283 283 284 281 280 279 279 279 278 277 278 276 276 278 279 279 279 279 279 279 280
Height
5903 5901 5899 5897 5896 5895 5894 5892 5891 5890 5889 5889 5889 5889 5888 5888 5888 5888 5888 5888 5888 5888 5889 5889 5889 5890 5890 5890 5890 5891 5891 5891 5891 5891 5891 5891 5891 5891 5891 5891 5891 5891 5891
5904 5902 5900 5898 5897 5895 5895 5894 5893 5892 5891 5890 5890 5890 5890 5890 5890 5889 5889 5889 5889 5889 5889 5890 5890 5890 5890 5890 5890 5890 5890 5890 5890 5890 5890 5890 5890 5890 5889 5889 5889 5889 5890
5904 5902 5900 5899 5897 5896 5895 5895 5894 5893 5892 5892 5891 5891 5891 5891 5891 5891 5890 5890 5890 5890 5890 5890 5890 5890 5890 5890 5890 5890 5890 5889 5889 5889 5889 5889 5889 5889 5889 5888 5888 5888 5888
5904 5902 5900 5899 5897 5896 5896 5895 5895 5894 5893 5893 5892 5892 5892 5892 5892 5891 5891 5891 5891 5891 5891 5890 5890 5890 5890 5890 5889 5889 5889 5888 5888 5888 5888 5888 5888 5888 5887 5887 5886 5886 5886
5903 5902 5900 5899 5898 5897 5896 5895 5895 5894 5894 5893 5893 5892 5892 5892 5892 5892 5891 5891 5891 5891 5890 5890 5890 5889 5889 5889 5888 5888 5888 5887 5887 5887 5886 5886 5886 5886 5886 5885 5885 5884 5884
5902 5900 5900 5898 5897 5897 5896 5895 5895 5895 5894 5894 5893 5893 5893 5892 5892 5892 5891 5891 5891 5890 5890 5890 5889 5889 5888 5888 5887 5887 5886 5886 5886 5885 5884 5884 5884 5884 5883 5883 5882 5882 5881
5900 5899 5899 5898 5897 5896 5896 5895 5895 5894 5894 5894 5894 5893 5893 5892 5892 5892 5891 5891 5890 5890 5889 5889 5888 5888 5887 5886 5886 5886 5885 5884 5884 5883 5883 5882 5882 5881 5881 5880 5880 5879 5879
5899 5898 5897 5897 5896 5896 5895 5894 5894 5893 5893 5893 5893 5893 5892 5892 5891 5891 5890 5890 5889 5888 5888 5887 5887 5886 5886 5885 5884 5884 5883 5883 5882 5881 5881 5880 5879 5879 5878 5878 5877 5876 5876
5896 5895 5895 5895 5895 5894 5893 5893 5892 5892 5892 5892 5892 5892 5891 5891 5891 5890 5889 5888 5888 5887 5886 5886 5885 5884 5884 5883 5882 5882 5881 5880 5880 5879 5878 5877 5876 5876 5875 5874 5874 5874 5873
5894 5893 5892 5892 5892 5892 5892 5892 5891 5890 5890 5890 5890 5890 5890 5889 5889 5888 5888 5887 5886 5885 5885 5884 5883 5882 5881 5880 5880 5879 5878 5878 5877 5876 5875 5874 5873 5872 5872 5871 5870 5869 5869
5892 5891 5891 5891 5890 5890 5889 5889 5889 5888 5888 5888 5888 5887 5887 5887 5886 5886 5885 5885 5884 5883 5882 5882 5880 5879 5878 5877 5876 5876 5875 5875 5874 5873 5872 5871 5870 5869 5868 5867 5866 5865 5864
5888 5888 5887 5887 5887 5887 5887 5886 5885 5886 5886 5886 5885 5885 5884 5883 5883 5882 5882 5881 5881 5880 5879 5878 5877 5876 5875 5874 5873 5872 5871 5871 5870 5869 5868 5867 5866 5864 5863 5862 5861 5860 5859
5883 5883 5883 5883 5884 5884 5884 5884 5883 5883 5882 5882 5881 5881 5880 5879 5878 5878 5878 5877 5877 5876 5875 5875 5874 5873 5871 5870 5869 5868 5867 5866 5865 5864 5863 5862 5861 5860 5858 5857 5856 5854 5853
5879 5879 5879 5879 5879 5880 5880 5880 5880 5879 5879 5878 5877 5877 5875 5874 5874 5873 5873 5873 5873 5872 5871 5870 5870 5869 5867 5866 5865 5863 5862 5861 5860 5859 5858 5856 5855 5854 5853 5851 5850 5848 5847
5874 5874 5874 5875 5875 5875 5875 5875 5874 5874 5874 5873 5873 5872 5871 5871 5870 5869 5869 5868 5868 5867 5866 5865 5864 5863 5862 5861 5860 5858 5857 5856 5854 5853 5852 5851 5849 5847 5846 5845 5843 5841 5840
5869 5869 5869 5869 5869 5870 5870 5870 5869 5868 5868 5868 5867 5867 5866 5866 5865 5864 5864 5863 5862 5861 5860 5859 5858 5857 5856 5855 5854 5853 5851 5850 5848 5847 5845 5844 5842 5841 5839 5837 5836 5834 5833
5864 5864 5863 5864 5864 5864 5864 5864 5864 5863 5862 5862 5861 5860 5860 5860 5859 5859 5858 5857 5856 5855 5854 5853 5852 5851 5850 5848 5847 5846 5845 5843 5842 5840 5838 5837 5835 5834 5832 5830 5828 5827 5825
5857 5857 5857 5858 5858 5858 5858 5858 5857 5857 5856 5855 5853 5853 5853 5853 5852 5852 5851 5850 5849 5848 5847 5846 5845 5843 5842 5841 5840 5839 5837 5836 5834 5832 5831 5829 5828 5826 5824 5823 5821 5819 5817
5850 5851 5851 5851 5851 5851 5851 5850 5850 5850 5849 5848 5847 5846 5845 5845 5845 5844 5844 5843 5842 5841 5839 5838 5837 5836 5835 5833 5832 5830 5829 5827 5826 5825 5823 5821 5819 5818 5816 5814 5813 5811 5809
5842 5842 5843 5843 5843 5843 5843 5842 5842 5842 5842 5840 5839 5838 5837 5837 5836 5836 5835 5835 5833 5832 5831 5830 5829 5827 5826 5825 5823 5822 5821 5819 5818 5816 5815 5813 5811 5809 5807 5805 5804 5802 5800
5835 5835 5835 5835 5835 5835 5834 5834 5834 5834 5833 5832 5831 5830 5829 5829 5828 5828 5827 5826 5825 5824 5822 5821 5820 5819 5817 5816 5814 5812 5811 5810 5808 5806 5805 5804 5802 5800 5798 5796 5794 5792 5791
5828 5827 5827 5827 5827 5827 5826 5826 5826 5825 5824 5823 5822 5822 5821 5820 5819 5819 5818 5817 5816 5815 5813 5812 5810 5809 5808 5806 5804 5802 5801 5799 5797 5796 5794 5793 5792 5790 5788 5786 5785 5783 5781
5819 5819 5819 5819 5819 5818 5818 5817 5817 5816 5815 5813 5812 5811 5811 5811 5810 5809 5808 5807 5806 5805 5803 5801 5800 5798 5797 5795 5793 5791 5789 5788 5787 5785 5784 5782 5781 5779 5777 5776 5774 5772 5770
5810 5810 5811 5811 5810 5809 5809 5808 5808 5807 5805 5804 5803 5803 5802 5802 5801 5800 5799 5797 5796 5795 5793 5791 5789 5787 5786 5784 5782 5780 5778 5777 5776 5775 5773 5771 5770 5768 5767 5765 5762 5760 5758
5802 5802 5802 5802 5802 5801 5800 5799 5798 5797 5796 5796 5795 5794 5794 5793 5792 5790 5789 5787 5785 5784 5783 5781 5779 5777 5775 5774 5771 5769 5767 5766 5765 5763 5761 5760 5759 5757 5755 5753 5750 5749 5747
5794 5793 5793 5793 5792 5792 5791 5790 5789 5789 5788 5787 5786 5786 5785 5784 5782 5780 5779 5778 5776 5774 5772 5770 5768 5766 5765 5763 5760 5758 5756 5755 5754 5752 5751 5749 5747 5746 5744 5742 5740 5737 5735